Temperature
33 32 32 32 33 33 33 33 33 34 35 34 33 32 32 32 32 31 30 29 28 27 26 25 24 23 23 22 21 21 20 20 20 20 20 20 20 19 19 19 19 19 19 19
32 32 33 34 34 34 34 33 33 34 35 34 33 33 33 33 32 32 31 30 29 28 27 25 24 24 23 22 21 21 21 20 20 20 20 20 20 20 19 19 19 19 19 19
32 33 34 34 34 33 33 33 33 33 34 34 32 32 32 32 33 32 31 30 29 28 27 26 25 24 23 22 22 21 21 21 20 20 20 20 20 19 19 19 19 19 19 19
33 34 34 33 34 34 33 34 34 33 32 32 32 30 31 32 32 32 31 31 30 29 28 26 25 24 24 23 22 22 21 21 21 20 20 20 20 20 19 19 19 19 19 19
33 34 34 33 34 34 33 34 34 33 32 31 32 31 31 32 32 32 32 31 30 29 29 27 26 25 24 23 23 22 21 21 21 21 20 20 20 20 19 19 19 19 19 19
34 35 35 34 35 35 35 34 33 33 32 30 31 32 31 32 32 32 32 32 31 30 29 28 27 25 25 24 23 22 22 21 21 21 20 20 20 20 19 19 19 19 19 19
32 34 35 35 34 34 34 32 31 30 30 30 32 32 32 34 34 33 33 32 31 30 29 28 27 26 25 24 23 23 22 22 21 21 20 20 20 20 20 19 19 19 19 19
32 32 34 35 34 34 34 32 30 29 30 31 32 31 32 34 34 34 33 32 31 31 30 29 28 26 25 25 24 23 22 22 21 21 21 21 21 20 20 20 19 19 19 19
32 32 35 35 35 34 33 32 33 32 31 31 31 31 33 34 34 33 33 32 31 31 30 29 28 27 26 25 24 23 22 22 21 21 21 21 20 20 20 20 20 19 19 19
33 31 33 35 35 35 34 33 32 31 30 30 31 31 32 32 33 33 33 32 31 31 30 29 28 27 26 25 24 23 23 22 22 21 21 20 20 20 20 20 19 19 19 19
33 31 32 34 33 33 34 33 33 32 31 30 30 31 33 33 33 33 33 32 31 30 29 29 28 27 26 25 24 23 23 22 22 21 21 20 20 20 20 20 19 19 19 19
33 32 31 32 34 35 34 34 33 31 30 31 30 30 34 33 33 33 32 31 30 30 29 29 28 27 26 25 24 23 23 22 22 21 21 20 20 20 20 20 19 19 19 19
31 30 29 30 32 33 33 33 33 33 32 31 30 30 33 33 33 33 32 31 30 29 29 28 27 27 26 25 24 23 23 22 22 21 21 21 20 20 20 20 19 19 19 18
30 30 29 29 30 31 32 32 33 32 31 31 31 31 31 32 32 32 31 30 30 29 28 28 27 26 25 25 24 23 23 22 22 21 21 20 20 20 20 19 19 19 19 18
31 30 30 30 31 32 32 32 32 32 32 31 31 31 31 31 31 31 30 30 29 29 28 26 26 25 24 24 23 23 22 22 22 21 21 20 20 20 19 19 19 19 19 18
30 29 29 29 31 31 31 31 32 32 32 32 32 31 31 31 31 30 29 29 28 28 27 26 25 24 23 23 23 22 22 21 21 21 21 20 20 19 19 19 19 19 19 18
29 28 28 28 30 30 29 31 32 32 32 32 31 31 31 31 30 29 29 28 28 27 26 25 24 23 22 22 22 22 21 21 20 20 20 20 20 19 19 19 19 19 18 18
28 27 27 28 28 27 29 32 32 31 31 32 31 31 31 30 30 29 28 27 26 26 25 24 24 23 22 22 21 21 21 21 20 20 20 20 19 19 19 19 18 18 18 18
28 27 26 27 27 28 29 30 31 30 29 30 30 30 30 29 29 28 27 26 25 25 24 24 23 23 22 22 21 21 20 20 20 20 20 19 19 19 19 18 18 18 18 18
28 27 26 26 26 26 28 29 30 30 28 29 29 29 28 28 28 27 26 25 24 24 23 23 23 23 22 21 21 20 20 20 20 20 19 19 19 19 18 18 18 18 18 17
26 26 26 26 26 27 28 29 29 27 27 28 28 27 27 26 26 25 25 24 23 23 23 22 22 22 21 21 21 20 20 20 20 19 19 19 18 18 18 18 18 17 17 17
26 26 25 26 25 26 28 28 26 25 26 26 26 26 26 25 25 24 24 23 22 22 22 21 21 21 20 20 20 20 19 19 19 19 18 18 18 18 18 17 17 17 17 17
26 26 26 25 26 26 26 26 25 25 25 25 25 25 25 25 24 23 23 22 22 21 21 21 20 20 20 19 19 19 19 19 18 18 18 18 17 17 17 17 17 17 17 17
26 26 26 25 25 26 25 25 24 24 24 24 24 24 24 23 23 22 22 21 21 20 20 20 19 19 19 18 18 18 18 18 18 17 17 17 17 17 17 17 17 17 16 16
24 24 24 24 24 24 24 24 24 23 23 23 23 23 23 22 22 21 21 20 20 19 19 19 19 18 18 18 18 17 17 17 17 17 17 17 17 17 17 17 16 16 16 16
24 23 23 23 23 23 22 22 22 22 22 22 22 22 22 22 21 20 20 19 19 19 18 18 18 17 17 17 17 17 17 17 16 16 16 16 16 16 16 16 16 16 16 16
Wind_Speed
8 7 5 5 5 5 6 4 2 1 2 1 3 6 9 10 8 10 10 10 9 9 10 9 8 7 8 7 6 5 4 3 3 2 1 1 1 1 2 3 3 2 2 1
8 8 7 6 5 6 5 4 3 1 0 2 1 2 7 8 8 8 10 10 10 9 10 10 9 8 8 7 6 6 5 4 3 2 2 2 1 1 2 2 3 3 2 1
9 7 5 6 6 6 6 4 4 4 3 3 2 3 6 8 8 8 9 10 11 11 11 11 10 9 9 8 7 6 5 5 4 3 2 1 1 1 1 3 2 2 2 1
9 9 7 8 8 6 6 5 6 6 6 5 4 3 5 8 9 9 8 9 10 10 11 12 11 10 9 9 9 7 6 5 4 3 3 2 2 1 1 2 2 2 2 1
10 10 9 9 8 6 6 7 7 8 8 7 7 3 4 6 7 8 9 9 9 10 11 12 12 11 10 10 10 9 7 6 5 4 3 2 1 1 2 2 2 2 2 2
13 12 9 9 8 8 8 8 9 9 8 7 7 4 3 5 7 8 9 9 10 10 10 10 11 11 11 10 9 10 8 6 6 5 4 3 2 1 2 1 1 1 2 1
14 13 11 9 10 9 9 8 7 5 5 5 4 3 2 6 8 8 7 8 9 9 9 9 10 11 11 10 9 10 10 8 7 6 5 4 3 2 2 1 1 1 1 2
12 11 10 10 11 9 8 7 7 7 7 5 2 2 2 5 6 7 8 8 8 8 8 9 10 11 10 11 10 10 10 9 8 6 5 4 4 3 2 1 1 1 0 1
9 9 8 8 9 10 9 8 10 10 10 8 3 1 3 6 7 6 7 8 7 6 8 8 9 11 11 11 11 11 11 9 8 7 6 5 4 3 2 2 2 1 0 1
10 10 10 8 9 10 10 9 8 7 6 7 5 4 2 4 6 7 7 7 7 7 6 7 7 9 9 10 10 11 11 10 9 8 7 6 5 3 3 2 1 1 1 0
10 10 12 9 9 10 10 11 9 8 7 8 6 3 2 4 4 5 6 6 5 5 5 6 7 8 9 9 10 10 10 10 9 8 6 5 6 5 4 3 2 2 1 1
10 10 11 11 9 10 12 12 11 9 7 7 7 6 1 1 3 4 5 5 5 5 5 4 6 7 8 8 8 8 8 8 8 7 7 6 5 5 5 4 4 3 3 3
5 6 9 11 10 10 11 12 12 11 10 9 8 5 1 1 3 4 4 4 6 5 5 4 5 6 6 7 7 7 7 7 7 7 7 6 5 5 5 5 4 4 3 3
5 9 11 14 11 9 10 11 12 11 10 10 9 6 3 1 2 2 3 3 5 6 5 5 5 5 5 5 5 6 6 7 6 6 7 6 5 4 4 3 4 3 3 3
8 11 13 15 15 14 13 14 14 13 11 12 11 7 3 1 1 2 3 2 2 5 6 6 5 5 4 4 4 3 4 4 4 5 5 5 5 4 3 3 3 3 3 4
7 9 12 15 15 15 16 15 15 14 13 12 13 7 2 1 2 2 2 1 1 2 4 5 5 5 4 4 4 3 3 3 4 5 4 4 4 4 4 4 3 3 3 3
9 9 11 14 14 14 16 14 12 11 10 9 9 5 3 3 2 1 3 2 2 2 3 5 4 3 2 3 3 3 4 4 3 4 4 4 4 4 4 4 3 4 4 4
9 8 8 12 12 16 12 11 10 10 8 7 5 4 4 4 2 2 3 3 3 2 2 3 4 4 4 4 4 4 4 5 5 4 4 4 4 4 3 3 4 4 3 3
10 8 9 11 14 15 12 9 10 10 8 5 5 5 5 4 3 3 6 6 4 4 3 1 1 3 4 4 4 4 4 4 4 4 4 3 3 3 3 4 4 4 3 4
12 9 11 12 14 14 8 6 8 8 7 5 5 4 5 5 4 2 5 5 5 4 3 2 1 1 2 3 3 4 4 4 4 3 2 2 3 3 4 5 4 4 3 4
11 11 14 15 16 10 7 6 7 8 4 4 4 3 3 3 4 4 4 4 4 4 3 3 3 2 1 1 2 3 3 3 2 2 1 2 3 4 5 5 4 4 4 5
12 12 12 12 14 9 5 5 3 3 5 4 4 4 3 3 4 3 3 4 4 4 4 4 3 2 2 1 2 2 2 1 1 1 2 3 3 5 4 4 4 4 5 6
9 8 7 7 6 1 5 3 3 3 4 5 5 5 4 4 4 3 2 3 3 3 4 3 2 1 1 1 0 1 0 0 1 1 2 2 3 3 3 4 4 5 5 5
6 6 7 6 4 3 2 3 4 5 5 5 5 5 5 4 3 2 2 2 2 3 3 3 3 1 1 1 2 1 0 0 1 2 2 2 2 3 3 3 4 4 3 4
7 6 7 8 6 6 4 4 4 4 6 4 3 4 5 4 2 2 1 1 2 2 2 2 2 1 1 1 2 1 1 1 2 2 2 2 3 3 2 2 2 2 2 2
8 8 8 7 5 6 6 7 7 6 5 6 5 5 5 3 2 2 1 1 1 2 2 1 1 1 1 1 1 2 2 1 2 2 2 3 3 2 2 2 2 4 2 1
Wind_Direction
240 249 257 263 275 283 293 306 326 75 115 156 151 149 155 165 173 162 158 161 166 170 165 159 159 155 143 138 137 139 135 129 132 144 151 157 167 162 144 134 130 131 119 128
247 250 254 263 272 276 280 302 305 291 107 279 192 156 150 170 173 164 164 167 169 169 162 159 163 162 152 148 149 146 147 152 154 147 169 184 178 165 134 106 116 126 130 169
239 254 257 268 266 273 290 295 308 309 295 263 244 198 167 172 171 165 169 169 172 170 168 165 167 166 163 161 163 167 156 154 161 174 167 159 155 170 114 116 125 128 137 133
247 250 248 259 262 260 287 304 299 293 285 278 262 239 189 182 172 171 181 176 175 170 168 168 169 169 171 169 167 159 157 159 162 179 178 183 159 138 135 129 134 148 133 98
251 247 243 253 266 273 284 293 296 293 285 279 266 238 185 177 174 171 182 181 175 173 171 171 171 170 174 172 166 161 157 159 162 176 176 181 169 156 132 121 145 167 138 108
258 255 250 256 261 265 272 274 276 270 272 266 266 256 174 170 172 178 181 173 175 173 172 167 166 164 170 170 167 161 154 160 165 171 172 163 159 150 126 145 172 192 141 114
250 243 239 244 251 250 254 269 278 272 261 256 273 288 135 138 155 164 161 166 170 167 167 163 163 165 169 171 167 157 156 165 170 171 171 166 178 180 173 198 193 212 148 130
248 245 232 230 242 257 261 264 275 290 292 294 279 263 147 123 125 138 148 154 160 165 163 167 168 167 172 171 165 160 159 166 168 169 172 172 180 198 193 201 231 191 67 105
261 259 243 239 240 247 264 271 276 282 282 288 291 283 153 142 135 140 150 147 157 162 160 166 169 169 172 171 169 168 163 164 167 172 172 173 175 193 184 173 214 207 159 178
258 277 270 243 241 243 246 262 278 279 292 292 279 263 184 138 149 148 150 151 151 154 156 159 164 165 165 168 167 166 167 166 168 173 182 179 176 183 190 198 188 171 151 91
254 261 267 253 243 255 250 248 259 277 282 279 290 299 107 142 147 154 150 141 137 145 152 168 162 158 158 162 162 163 163 165 169 176 177 177 179 182 193 195 192 187 189 188
249 257 267 271 269 260 264 267 266 267 277 283 285 287 343 153 144 137 131 129 143 145 153 157 157 156 156 157 157 157 162 167 171 173 171 180 180 185 193 196 198 195 197 204
286 267 267 266 261 246 252 258 262 265 268 269 269 272 219 152 57 96 106 122 129 132 138 144 135 141 147 154 152 157 167 170 175 172 174 178 188 193 201 196 192 196 203 207
273 257 258 261 266 273 264 265 263 260 264 271 270 272 260 78 56 70 94 120 134 137 137 126 113 120 127 134 145 161 170 170 167 169 179 181 190 194 202 196 194 197 210 212
258 258 259 263 269 273 273 274 271 266 263 269 274 273 266 217 103 49 73 98 139 141 130 122 120 117 129 133 136 156 160 160 163 169 178 181 188 189 184 190 203 197 211 223
259 273 276 270 268 268 269 264 266 266 265 261 272 277 235 268 83 81 80 93 96 115 123 125 125 131 141 141 149 154 164 165 172 185 185 183 190 193 194 199 197 210 224 234
259 263 270 271 275 275 266 265 262 262 268 272 276 296 354 341 27 95 109 91 51 57 103 122 123 140 150 154 147 177 176 169 183 197 189 189 196 202 202 211 201 218 231 237
267 273 267 267 270 263 265 276 279 274 276 283 286 309 325 334 1 60 72 70 50 42 67 119 150 167 169 164 179 201 187 182 191 198 201 197 199 206 199 205 212 221 231 241
251 255 262 263 259 259 261 272 279 274 276 299 302 309 330 340 339 59 58 55 43 34 34 72 177 171 163 173 176 182 197 195 200 204 213 216 209 211 214 221 227 231 235 244
230 232 247 258 262 263 264 275 287 281 263 311 316 330 357 339 301 10 44 37 30 28 21 358 339 193 162 165 168 188 215 212 216 219 219 225 225 225 229 229 232 239 240 245
226 226 237 251 259 262 284 291 283 268 286 339 335 347 350 349 340 5 26 29 27 20 14 6 8 23 54 136 165 203 223 234 227 220 224 230 237 239 233 230 226 233 237 244
240 239 236 246 254 255 314 311 312 359 358 2 356 344 341 347 354 22 29 29 19 6 12 11 11 27 36 60 178 206 224 249 248 225 238 239 240 253 247 230 233 237 235 241
246 255 258 255 254 332 349 348 14 10 341 340 342 344 332 326 345 10 17 9 2 1 360 352 355 48 46 356 335 228 214 228 244 220 252 262 264 267 254 246 243 239 235 242
263 295 279 276 264 285 317 345 356 349 335 332 339 340 319 316 326 342 351 356 352 348 348 347 349 39 36 7 3 6 7 226 243 240 255 268 265 259 259 253 248 243 252 256
287 286 283 283 292 299 296 312 324 323 317 320 328 309 297 304 312 312 318 338 344 341 341 338 342 16 23 42 11 345 347 297 255 251 261 274 271 257 250 260 274 260 256 258
273 276 271 277 303 303 315 327 319 316 321 320 309 304 306 308 305 291 281 304 314 317 327 330 355 17 18 19 350 344 357 314 255 252 254 263 270 270 272 261 304 343 306 259
Height
1486 1488 1489 1485 1480 1480 1478 1479 1482 1476 1469 1473 1478 1481 1482 1485 1488 1491 1495 1499 1503 1506 1508 1510 1512 1514 1515 1515 1516 1516 1517 1518 1518 1519 1520 1521 1522 1522 1523 1523 1522 1522 1522 1522
1487 1488 1481 1477 1477 1477 1477 1481 1481 1474 1469 1473 1479 1480 1479 1482 1484 1488 1492 1496 1500 1503 1506 1509 1511 1513 1513 1514 1515 1516 1516 1517 1518 1519 1520 1521 1522 1523 1523 1523 1523 1523 1523 1522
1488 1483 1477 1478 1479 1481 1479 1481 1481 1480 1473 1473 1480 1486 1481 1480 1481 1486 1489 1493 1496 1500 1503 1506 1509 1511 1512 1513 1514 1515 1516 1517 1518 1519 1520 1522 1522 1523 1523 1523 1523 1523 1523 1523
1481 1477 1477 1479 1479 1478 1485 1474 1475 1476 1483 1487 1484 1500 1486 1479 1480 1483 1487 1490 1493 1497 1500 1504 1506 1508 1510 1512 1513 1514 1515 1516 1517 1518 1519 1520 1521 1522 1523 1523 1523 1523 1523 1523
1480 1475 1476 1479 1476 1474 1477 1472 1473 1477 1482 1489 1482 1491 1490 1477 1482 1481 1484 1487 1491 1494 1497 1501 1503 1506 1508 1511 1512 1513 1514 1515 1516 1517 1519 1520 1521 1522 1522 1523 1523 1523 1523 1522
1475 1472 1471 1472 1470 1471 1471 1474 1476 1476 1482 1500 1487 1488 1492 1478 1478 1478 1480 1483 1487 1491 1495 1498 1501 1504 1506 1509 1511 1512 1512 1514 1515 1517 1517 1518 1519 1520 1521 1522 1522 1522 1522 1522
1479 1471 1468 1469 1473 1471 1472 1485 1500 1505 1507 1501 1479 1483 1483 1468 1468 1472 1476 1480 1485 1489 1492 1496 1499 1502 1505 1507 1509 1510 1511 1513 1514 1516 1517 1517 1518 1519 1520 1521 1521 1522 1522 1521
1487 1484 1468 1466 1470 1475 1474 1482 1504 1516 1512 1494 1480 1488 1476 1463 1466 1470 1475 1479 1483 1487 1490 1494 1497 1500 1502 1505 1507 1509 1510 1512 1513 1514 1515 1517 1517 1518 1519 1520 1521 1521 1521 1521
1482 1481 1464 1463 1463 1468 1477 1479 1475 1488 1493 1498 1490 1482 1470 1463 1467 1470 1473 1477 1482 1485 1489 1492 1495 1498 1501 1503 1505 1507 1508 1510 1512 1513 1515 1516 1516 1517 1518 1519 1520 1520 1520 1520
1472 1483 1468 1462 1464 1464 1468 1471 1479 1489 1506 1510 1497 1489 1482 1473 1470 1470 1473 1477 1481 1484 1488 1491 1494 1496 1499 1502 1503 1506 1507 1509 1510 1512 1514 1515 1515 1516 1517 1518 1518 1518 1518 1518
1468 1480 1475 1467 1470 1471 1469 1471 1474 1479 1485 1502 1508 1496 1466 1467 1467 1469 1471 1475 1480 1484 1487 1490 1493 1495 1498 1500 1503 1504 1506 1508 1509 1511 1512 1513 1514 1515 1515 1516 1516 1516 1516 1516
1468 1474 1481 1472 1462 1460 1464 1467 1471 1487 1491 1488 1498 1493 1463 1464 1465 1468 1471 1475 1479 1483 1486 1489 1492 1494 1497 1499 1501 1503 1505 1506 1508 1509 1511 1512 1512 1513 1514 1514 1514 1514 1514 1514
1472 1479 1492 1488 1477 1466 1467 1464 1465 1469 1478 1486 1496 1492 1466 1466 1467 1469 1472 1476 1479 1482 1485 1488 1490 1493 1496 1498 1500 1502 1503 1505 1507 1508 1509 1510 1510 1511 1512 1512 1512 1512 1512 1512
1475 1479 1489 1497 1485 1474 1473 1468 1465 1470 1481 1484 1483 1481 1472 1469 1470 1472 1474 1476 1478 1482 1484 1487 1489 1492 1494 1497 1499 1501 1502 1504 1505 1506 1507 1508 1508 1509 1510 1510 1510 1510 1510 1510
1473 1479 1478 1475 1469 1468 1469 1468 1466 1469 1470 1478 1475 1473 1471 1469 1471 1473 1475 1477 1479 1481 1484 1486 1488 1491 1493 1496 1498 1499 1501 1502 1504 1504 1505 1506 1506 1507 1508 1508 1508 1508 1508 1509
1473 1479 1479 1478 1470 1468 1469 1466 1466 1466 1464 1467 1467 1469 1466 1467 1470 1473 1476 1477 1479 1481 1483 1486 1488 1490 1493 1494 1496 1498 1499 1501 1502 1503 1503 1504 1505 1505 1505 1506 1506 1506 1506 1506
1476 1481 1486 1485 1473 1472 1478 1466 1463 1463 1461 1463 1470 1468 1466 1468 1470 1473 1475 1477 1480 1482 1483 1486 1488 1490 1492 1493 1494 1496 1498 1498 1500 1501 1501 1501 1502 1502 1503 1503 1504 1503 1504 1503
1479 1483 1485 1485 1485 1497 1473 1458 1458 1461 1461 1461 1462 1465 1467 1469 1471 1473 1475 1477 1479 1481 1483 1486 1487 1488 1490 1492 1493 1495 1496 1497 1497 1498 1498 1499 1499 1500 1500 1499 1500 1500 1500 1499
1475 1482 1486 1486 1487 1481 1469 1461 1460 1463 1466 1463 1464 1466 1468 1470 1472 1474 1476 1479 1481 1482 1483 1485 1487 1487 1488 1490 1492 1493 1494 1495 1495 1495 1495 1496 1496 1497 1497 1496 1496 1496 1496 1496
1473 1477 1485 1484 1489 1488 1473 1462 1461 1464 1472 1467 1467 1468 1470 1473 1475 1476 1478 1480 1481 1482 1483 1484 1485 1486 1487 1488 1489 1490 1491 1492 1492 1492 1493 1493 1493 1493 1493 1493 1493 1493 1492 1492
1476 1479 1483 1484 1484 1476 1465 1461 1462 1477 1477 1469 1469 1471 1473 1475 1477 1479 1479 1481 1482 1483 1483 1483 1483 1484 1485 1485 1486 1487 1488 1488 1489 1489 1489 1489 1489 1490 1489 1489 1489 1489 1489 1489
1474 1476 1479 1479 1483 1481 1466 1465 1470 1476 1472 1472 1473 1473 1475 1476 1477 1478 1480 1481 1482 1482 1482 1482 1482 1482 1483 1483 1484 1484 1485 1486 1486 1486 1486 1486 1486 1486 1486 1485 1485 1485 1485 1484
1467 1470 1470 1472 1474 1470 1469 1470 1472 1473 1474 1474 1474 1474 1475 1476 1477 1479 1480 1481 1481 1482 1482 1482 1482 1481 1481 1482 1482 1482 1483 1483 1483 1483 1483 1482 1482 1482 1482 1481 1481 1480 1481 1480
1465 1466 1466 1469 1468 1469 1470 1471 1472 1474 1475 1475 1475 1475 1475 1476 1477 1478 1479 1480 1481 1481 1481 1481 1481 1480 1480 1480 1480 1480 1480 1480 1480 1480 1479 1479 1478 1478 1478 1478 1477 1476 1476 1476
1469 1470 1470 1470 1470 1470 1471 1472 1473 1474 1473 1474 1475 1475 1475 1476 1477 1478 1478 1479 1479 1480 1480 1480 1479 1479 1478 1478 1478 1478 1478 1477 1477 1477 1476 1475 1475 1474 1474 1474 1473 1472 1473 1473
1471 1471 1472 1473 1473 1473 1473 1474 1474 1473 1473 1474 1474 1474 1475 1475 1476 1476 1477 1477 1477 1478 1478 1477 1477 1477 1476 1476 1476 1475 1475 1475 1474 1474 1473 1473 1473 1472 1471 1470 1470 1470 1470 1470